Location: Unspecified
(0.0000°N, 0.0000°E)
Time: 04:04:06
(UTC+00:00)

Vanguard 1 - Pass Details

Date: 19 December 2023
Orbit: 653 x 3826 km, 34.3° (Epoch: 22 February)

Event Time Altitude Azimuth Distance (km) Brightness Sun altitude
Rises 02:21:24 0° 264° (W) 7,855 - -47.8°
Reaches altitude 10° 02:30:10 10° 248° (WSW) 6,466 - -46.0°
Exits shadow 02:33:17 13° 240° (WSW) 5,996 13.8 -45.4°
Maximum altitude 02:41:51 18° 211° (SSW) 4,950 13.5 -43.6°
Drops below altitude 10° 02:50:43 10° 172° (S) 4,732 13.9 -41.8°
Sets 02:55:36 0° 153° (SSE) 5,165 14.4 -40.7°
